{"data":{"norad_id":68309,"intl_designator":"2026-057R","name":"STARLINK-37149","alt_names":[],"object_type":"PAYLOAD","status":"ACTIVE","operator":null,"country":"US","launch_date":"2026-03-20","launch_site_code":"AFWTR","launch_vehicle":null,"mission":null,"orbit_class":"UNKNOWN","rcs_meters":null,"size_class":null,"mass_kg":null,"dimensions":null,"purposes":["comms"],"wikipedia_slug":null,"has_3d_model":false,"image_url":null,"decayed_at":null,"tle_current":{"epoch":"2026-05-24T20:41:55.796640Z","epoch_age_seconds":90482,"freshness":"FRESH","line1":"1 68309U 26057R   26144.86245135  .00176805  00000+0  11619-2 0  9993","line2":"2 68309  97.2844 271.0516 0004436  56.5481 303.6208 15.75181570 10272","mean_motion":15.7518157,"eccentricity":0.0004436,"inclination_deg":97.2844,"raan_deg":271.0516,"arg_perigee_deg":56.5481,"mean_anomaly_deg":303.6208,"bstar":0.0011619,"rev_number":1027,"period_min":91.418032525609,"perigee_km":341.13256172587,"apogee_km":347.09654330326,"semimajor_km":6722.2515525146,"source":"CELESTRAK","updated_at":"2026-05-25T13:38:21.918749Z"}}}